Powrót do katalogu

ONEWEB-0036

AktywnyŁącznośćPO
NORAD 45144·PAYLOAD·🇬🇧 United Kingdom

Wystrzelony Feb 6, 2020 z Baikonur Cosmodrome

Loading…

Następne Przeloty (najbliższe 24 godziny)

TLE

ŚwieżeSource: CelesTrak SupGP

Epoka: Sep 14, 2026, 17:14 UTC

1 45144C 20008P   26257.71822176  .00002909  00000+0  83431-2 0  2571
2 45144  87.8934  18.4696 0001846 105.2514   8.0205 13.10376085    10

Śledź ONEWEB-0036 w czasie rzeczywistym z AllMySat

Download on the App Store